User: anonymous   Login
Location: Unspecified
(0.0000°N, 0.0000°E)
Time: 09:12:15
(UTC+00:00)
Language:

RS-15 - Orbit

View from above orbital plane
View from above orbital plane
View from above satellite
View from above satellite

Ground track
Ground track

The orbit data is extracted from the following two-line orbital elements,

1 23439U 94085A   20269.96291197 -.00000054 +00000-0 -33151-3 0  9997
2 23439 064.8142 083.7082 0151913 023.4316 337.3436 11.27569134060515
Epoch (UTC): 25 September 2020 23:06:35
Eccentricity: 0.0151913
inclination: 64.8142°
perigee height: 1895 km
apogee height: 2150 km
right ascension of ascending node: 83.7082°
argument of perigee: 23.4316°
revolutions per day: 11.27569134
mean anomaly at epoch: 337.3436°
orbit number at epoch: 6051

The dashed part of the orbit path shows where the satellite is in the earth's shadow,  

DLR